This is the latest recevied weather packets stored in our database for station/object K3MV-13. If no packets are shown the sender has not sent any weather packets the latest 10 day(s).
| Time | Temp. | Humidity | Pressure | Rain* | Wind** | Luminosity | Snow |
|---|---|---|---|---|---|---|---|
| 1777922255 | 20.56° C | 48% | 1009.9 hPa | 0 mm | - | 365 W/m² | - |
| 1777921952 | 20.56° C | 47% | 1010 hPa | 0 mm | - | 233 W/m² | - |
| 1777921647 | 20.56° C | 46% | 1010 hPa | 0 mm | - | 215 W/m² | - |
| 1777921344 | 20.56° C | 49% | 1010.1 hPa | 0 mm | - | 230 W/m² | - |
| 1777921040 | 21.11° C | 46% | 1009.9 hPa | 0 mm | - | 291 W/m² | - |
| 1777920737 | 21.11° C | 46% | 1010.1 hPa | 0 mm | - | 793 W/m² | - |
| 1777920433 | 20° C | 49% | 1010.2 hPa | 0 mm | - | 832 W/m² | - |
| 1777920129 | 20° C | 46% | 1010.3 hPa | 0 mm | - | 258 W/m² | - |
| 1777919825 | 20.56° C | 45% | 1010.6 hPa | 0 mm | - | 270 W/m² | - |
| 1777919522 | 20° C | 48% | 1010.5 hPa | 0 mm | - | 653 W/m² | - |
| 1777919220 | 19.44° C | 48% | 1010.6 hPa | 0 mm | - | 896 W/m² | - |
| 1777918917 | 18.89° C | 47% | 1010.7 hPa | 0 mm | - | 375 W/m² | - |
| 1777918615 | 18.89° C | 49% | 1010.5 hPa | 0 mm | - | 265 W/m² | - |
| 1777918312 | 18.89° C | 47% | 1010.8 hPa | 0 mm | - | 211 W/m² | - |
| 1777918011 | 19.44° C | 47% | 1010.8 hPa | 0 mm | - | 234 W/m² | - |
| 1777917709 | 20° C | 46% | 1010.7 hPa | 0 mm | - | 256 W/m² | - |
| 1777917406 | 20.56° C | 47% | 1010.8 hPa | 0 mm | - | 220 W/m² | - |
| 1777917103 | 20.56° C | 46% | 1010.7 hPa | 0 mm | - | 922 W/m² | - |
| 1777916801 | 19.44° C | 46% | 1010.7 hPa | 0 mm | - | 909 W/m² | - |
| 1777916497 | 19.44° C | 46% | 1010.8 hPa | 0 mm | - | 926 W/m² | - |
| 1777916195 | 18.89° C | 47% | 1010.7 hPa | 0 mm | - | 850 W/m² | - |
| 1777915892 | 19.44° C | 45% | 1010.7 hPa | 0 mm | - | 961 W/m² | - |
| 1777915589 | 20° C | 45% | 1010.9 hPa | 0 mm | - | 940 W/m² | - |
| 1777915285 | 19.44° C | 48% | 1011.2 hPa | 0 mm | - | 749 W/m² | - |
| 1777914981 | 19.44° C | 45% | 1011.2 hPa | 0 mm | - | 928 W/m² | - |
* Rain latest hour (hover to see other rain measurements)
** Current wind speed in m/s (hover to see current wind gust speed)